EW3863 Weather Reports


time (UTC)temp
C
wind
direction
speed
KPH
gust
KPH
rain 1hr
cm
rain 24hr
cm
rain mn
cm
humidity
%
barometer
mb
20260505041513 16 18 0.0 1.6 0.00 0.00 0.00 73 1012.7
20260505040019 16 18 0.0 0.0 0.00 0.00 0.00 71 1012.5
20260505034510 16 18 0.0 1.6 0.00 0.00 0.00 69 1012.6
20260505033014 16 18 0.0 0.0 0.00 0.00 0.00 70 1012.6
20260505031509 17 18 0.0 3.2 0.00 0.00 0.00 68 1012.7
20260505030014 17 23 0.0 1.6 0.00 0.00 0.00 64 1012.7
20260505024506 17 20 0.0 4.8 0.00 0.00 0.00 64 1012.6
20260505023003 17 19 0.0 8.0 0.00 0.00 0.00 65 1012.8
20260505021501 16 20 0.0 4.8 0.00 0.00 0.00 65 1013.0
20260505020100 16 24 1.6 6.4 0.00 0.00 0.00 65 1013.0
20260505014604 16 12 0.0 8.0 0.00 0.00 0.00 64 1013.0
20260505013058 16 24 0.0 6.4 0.00 0.00 0.00 63 1013.2
20260505011602 16 11 3.2 9.7 0.00 0.00 0.00 64 1013.3
20260505010104 16 20 0.0 6.4 0.00 0.00 0.00 65 1013.4
20260505004552 16 23 0.0 6.4 0.00 0.00 0.00 66 1013.6
20260505003050 16 25 0.0 4.8 0.00 0.00 0.00 68 1013.7
20260505001550 16 39 0.0 4.8 0.00 0.00 0.00 69 1013.9
20260505000054 16 17 0.0 3.2 0.00 0.00 0.00 69 1014.0
20260504234542 16 2 1.6 4.8 0.00 0.00 0.00 69 1014.3
20260504233040 16 18 0.0 1.6 0.00 0.00 0.00 70 1014.4
20260504231539 16 18 0.0 8.0 0.00 0.00 0.00 70 1014.6
20260504230037 15 25 0.0 6.4 0.00 0.00 0.00 70 1014.7
20260504224537 15 27 0.0 3.2 0.00 0.00 0.00 70 1014.7
20260504223035 15 30 0.0 1.6 0.00 0.00 0.00 71 1014.8
20260504221532 15 26 0.0 1.6 0.00 0.00 0.00 71 1014.8
20260504220042 15 34 0.0 1.6 0.00 0.00 0.00 72 1014.9
20260504214534 15 34 0.0 1.6 0.00 0.00 0.00 73 1015.0
20260504213037 15 6 0.0 1.6 0.00 0.00 0.00 74 1015.1
20260504211537 16 27 0.0 1.6 0.00 0.00 0.00 74 1015.2
20260504210028 16 27 0.0 1.6 0.00 0.00 0.00 72 1015.3
20260504204537 16 26 0.0 1.6 0.00 0.00 0.00 70 1015.3
20260504203027 17 26 0.0 3.2 0.00 0.00 0.00 68 1015.2
20260504201527 17 23 0.0 1.6 0.00 0.00 0.00 66 1015.1
20260504200025 18 307 0.0 0.0 0.00 0.00 0.00 66 1015.1
20260504194525 18 302 0.0 1.6 0.00 0.00 0.00 65 1015.0
20260504193025 18 300 0.0 1.6 0.00 0.00 0.00 64 1014.9
20260504191526 19 309 0.0 1.6 0.00 0.00 0.00 62 1014.8
20260504190027 19 293 0.0 1.6 0.00 0.00 0.00 60 1014.6
20260504184522 20 13 0.0 3.2 0.00 0.00 0.00 59 1014.6
20260504183022 20 293 0.0 4.8 0.00 0.00 0.00 57 1014.6
20260504181521 20 334 0.0 3.2 0.00 0.00 0.00 55 1014.6
20260504180020 21 278 0.0 3.2 0.00 0.00 0.00 54 1014.7
20260504174521 21 331 0.0 3.2 0.00 0.00 0.00 52 1014.6
20260504173018 22 70 0.0 6.4 0.00 0.00 0.00 50 1014.5
20260504171518 22 322 0.0 6.4 0.00 0.00 0.00 48 1014.5
20260504120107 26 7 1.6 6.4 0.00 0.00 0.00 34 1016.2
20260504081542 27 349 0.0 1.6 0.00 0.00 0.00 35 1017.3
20260504050002 14 15 0.0 1.6 0.00 0.00 0.00 65 1016.3